Find Starlink 34499

NORAD ID: 64709 Int'l Des: 2025-142 Owner: SPXS Country: US Constellation: starlink operational
LEOCIRCULAR

当前视图

正在加载3D地球...

About Starlink 34499

Starlink 34499 (NORAD 64709) is a starlink constellation satellite (v2 mini) launched Jun 28, 2025 by SPXS of US. It operates in LEO, CIRCULAR orbit with a mass of 575.00 kg.

即将过境

Passes for default location (London). Set your location on the main map for personalized predictions.

高度历史

Loading altitude history...

两行轨道根数

1 64709U 25142P 26228.11615009 .00002744 00000-0 23764-3 0 9995
2 64709 69.9992 272.3706 0004071 270.4400 89.6292 14.98335079 63349
Epoch: Aug 16, 2026 • Age: 8 hours

当前状态

高度 584.1 km
远地点 / 近地点 N/A
速度 7.57 km/s
星下点 59.62°N, 178.35°E
发射日期 Jun 28, 2025
运行时间 1.1 years
类型 internet

技术详情

分类 Payload
质量 575.00 kg
干质量 530.00 kg
总质量 575.00 kg
长度 0.30 m
直径 4.10 m
跨度 29.00 m
形状 Box + pan
制造商 SPXS
平台类型 Starlink V2MO
阶段状态 In Orbit
所有者/国家 SPXS/US

Most Searched